Location: Stilling
(56.0622°N, 9.9882°E)
Time: 00:22:51
(UTC+00:00)

Cosmos 1707 Rocket - Pass Details

Date: 13 July 2020
Orbit: 605 x 632 km, 82.5° (Epoch: 03 August)

Event Time Altitude Azimuth Distance (km) Brightness Sun altitude
Rises 23:22:24 0° 346° (NNW) 2,935 8.8 -12.3°
Reaches altitude 10° 23:24:39 10° 345° (NNW) 2,020 7.5 -12.3°
Maximum altitude 23:29:06 72° 262° (W) 663 3.6 -12.3°
Enters shadow 23:32:17 19° 180° (S) 1,512 4.9 -12.3°
